Cardiff-Wales, United Kingdom

5:50 AM GMT on December 11, 2019 (GMT +0000)
Cardiff

Weather History for EGFF - November, 2019

Change the Weather History Date:

Sunday, November 17, 2019

  Actual Average Record
Temperature  
Mean Temperature 44 °F -  
Max Temperature 48 °F 48 °F 59 °F (1997)
Min Temperature 39 °F 38 °F 30 °F (2005)
Degree Days  
Heating Degree Days 22    
Moisture  
Dew Point 42 °F    
Average Humidity 91    
Maximum Humidity 100    
Minimum Humidity 81    
Precipitation  
Precipitation 0.00 in 0.13 in - ()
Sea Level Pressure  
Sea Level Pressure 29.88 in    
Wind  
Wind Speed 4 mph ()    
Max Wind Speed 15 mph    
Max Gust Speed -    
Visibility 5.8 miles    
Events      
Averages and records for this station are not official NWS values.
T = Trace of Precipitation, MM = Missing Value Source: Averaged Metar Reports

Daily Weather History Graph

Daily Weather History Graph

Search for Another Location

Airport or City:

Astronomy

Nov. 17, 2019 Rise Set
Actual Time 7:33 AM GMT 4:22 PM GMT
Civil Twilight 6:56 AM GMT 4:59 PM GMT
Nautical Twilight 6:15 AM GMT 5:40 PM GMT
Astronomical Twilight 5:36 AM GMT 6:19 PM GMT
Moon 8:32 PM GMT (11/17) 12:19 PM GMT (11/17)
Length of Visible Light 10h 02m
Length of Day
8h 48m
Waning Gibbous, 75% of the Moon is Illuminated
Nov 17
Waning Gibbous
Nov 19
Last Quarter
Nov 26
New
Dec 4
First Quarter
Dec 12
Full

Hourly Weather History & Observations

Time (GMT) Temp. Windchill Dew Point Humidity Pressure Visibility Wind Dir Wind Speed Gust Speed Precip Events Conditions
12:20 AM 44.6 °F 42.2 °F 41.0 °F 87% 29.77 in 6.2 mi SW 4.6 mph - N/A   Partly Cloudy
12:50 AM 46.4 °F - 42.8 °F 87% 29.77 in 6.2 mi SSW 2.3 mph - N/A   Unknown
1:50 AM 42.8 °F 41.1 °F 41.0 °F 93% 29.77 in 6.2 mi NNE 3.5 mph - N/A   Mostly Cloudy
2:20 AM 42.8 °F 40.1 °F 41.0 °F 93% 29.77 in 6.2 mi ENE 4.6 mph - N/A   Mostly Cloudy
2:50 AM 42.8 °F 41.1 °F 41.0 °F 93% 29.77 in 6.2 mi ESE 3.5 mph - N/A   Mostly Cloudy
3:20 AM 42.8 °F - 41.0 °F 93% 29.77 in 6.2 mi Variable 2.3 mph - N/A   Mostly Cloudy
3:50 AM 41.0 °F - 41.0 °F 100% 29.77 in 5.0 mi NE 2.3 mph - N/A   Mostly Cloudy
4:20 AM 41.0 °F - 41.0 °F 100% 29.80 in 4.3 mi Variable 2.3 mph - N/A   Scattered Clouds
4:50 AM 41.0 °F 38.0 °F 41.0 °F 100% 29.80 in 4.3 mi ENE 4.6 mph - N/A   Unknown
5:20 AM 41.0 °F 39.0 °F 41.0 °F 100% 29.80 in 3.1 mi NE 3.5 mph - N/A   Mostly Cloudy
5:50 AM 41.0 °F - 39.2 °F 93% 29.80 in 3.7 mi East 2.3 mph - N/A   Scattered Clouds
6:20 AM 41.0 °F - 39.2 °F 93% 29.80 in 4.3 mi NNE 2.3 mph - N/A   Scattered Clouds
6:50 AM 41.0 °F 39.0 °F 41.0 °F 100% 29.80 in 5.0 mi NE 3.5 mph - N/A   Overcast
7:20 AM 41.0 °F 38.0 °F 41.0 °F 100% 29.83 in 3.1 mi ENE 4.6 mph - N/A   Overcast
7:50 AM 39.2 °F 37.0 °F 39.2 °F 100% 29.83 in 5.6 mi NNE 3.5 mph - N/A   Scattered Clouds
8:20 AM 41.0 °F 39.0 °F 39.2 °F 93% 29.83 in 6.2 mi Variable 3.5 mph - N/A   Mostly Cloudy
8:50 AM 42.8 °F - 41.0 °F 93% 29.86 in 6.2 mi Variable 2.3 mph - N/A   Mostly Cloudy
9:20 AM 42.8 °F 41.1 °F 42.8 °F 100% 29.86 in 6.2 mi NE 3.5 mph - N/A   Mostly Cloudy
9:50 AM 44.6 °F 43.1 °F 42.8 °F 93% 29.86 in 6.2 mi Variable 3.5 mph - N/A   Unknown
10:20 AM 44.6 °F 43.1 °F 44.6 °F 100% 29.86 in 6.2 mi Variable 3.5 mph - N/A   Unknown
10:50 AM 46.4 °F 43.5 °F 44.6 °F 93% 29.89 in 6.2 mi NNE 5.8 mph - N/A   Mostly Cloudy
11:20 AM 46.4 °F 44.3 °F 44.6 °F 93% 29.89 in 6.2 mi NNE 4.6 mph - N/A   Partly Cloudy
11:50 AM 46.4 °F 44.3 °F 44.6 °F 93% 29.89 in 6.2 mi North 4.6 mph - N/A   Unknown
12:20 PM 48.2 °F - 44.6 °F 87% 29.89 in 6.2 mi Variable 3.5 mph - N/A   Mostly Cloudy
12:50 PM 48.2 °F - 44.6 °F 87% 29.86 in 6.2 mi North 4.6 mph - N/A   Mostly Cloudy
1:20 PM 48.2 °F - 44.6 °F 87% 29.86 in 6.2 mi North 5.8 mph - N/A   Overcast
1:50 PM 48.2 °F - 44.6 °F 87% 29.89 in 6.2 mi Variable 2.3 mph - N/A   Overcast
2:20 PM 48.2 °F - 44.6 °F 87% 29.89 in 6.2 mi Variable 1.2 mph - N/A   Overcast
2:50 PM 48.2 °F - 44.6 °F 87% 29.89 in 6.2 mi Variable 1.2 mph - N/A   Overcast
3:20 PM 48.2 °F - 44.6 °F 87% 29.89 in 6.2 mi Variable 1.2 mph - N/A   Mostly Cloudy
4:20 PM 46.4 °F 45.2 °F 44.6 °F 93% 29.92 in 6.2 mi North 3.5 mph - N/A   Partly Cloudy
4:50 PM 46.4 °F 43.5 °F 42.8 °F 87% 29.92 in 6.2 mi North 5.8 mph - N/A   Overcast
5:20 PM 46.4 °F 42.9 °F 42.8 °F 87% 29.92 in 6.2 mi North 6.9 mph - N/A   Mostly Cloudy
5:50 PM 46.4 °F 42.4 °F 42.8 °F 87% 29.95 in 6.2 mi North 8.1 mph - N/A   Mostly Cloudy
6:20 PM 46.4 °F 42.4 °F 42.8 °F 87% 29.95 in 6.2 mi North 8.1 mph - N/A   Overcast
6:50 PM 46.4 °F 41.5 °F 42.8 °F 87% 29.95 in 6.2 mi North 10.4 mph - N/A   Mostly Cloudy
7:20 PM 46.4 °F 42.4 °F 42.8 °F 87% 29.95 in 6.2 mi North 8.1 mph - N/A   Overcast
7:50 PM 46.4 °F 42.4 °F 42.8 °F 87% 29.95 in 6.2 mi North 8.1 mph - N/A   Overcast
8:20 PM 46.4 °F 40.7 °F 42.8 °F 87% 29.98 in 6.2 mi NNE 12.7 mph - N/A   Overcast
8:50 PM 46.4 °F 41.9 °F 42.8 °F 87% 29.98 in 6.2 mi NNE 9.2 mph - N/A   Overcast
9:20 PM 46.4 °F 40.4 °F 42.8 °F 87% 29.98 in 6.2 mi NNE 13.8 mph - N/A   Overcast
9:50 PM 46.4 °F 40.4 °F 42.8 °F 87% 29.98 in 6.2 mi NE 13.8 mph - N/A   Mostly Cloudy
10:20 PM 46.4 °F 40.1 °F 41.0 °F 81% 29.98 in 6.2 mi NE 15.0 mph - N/A   Partly Cloudy
10:50 PM 46.4 °F 40.4 °F 41.0 °F 81% 29.98 in 6.2 mi NE 13.8 mph - N/A   Unknown
11:20 PM 44.6 °F 38.4 °F 39.2 °F 81% 29.98 in 6.2 mi NE 12.7 mph - N/A   Unknown
11:50 PM 42.8 °F 36.2 °F 39.2 °F 87% 30.01 in 6.2 mi NNE 12.7 mph - N/A   Mostly Cloudy